period_start,C,m1,H,J0,J1,J2,J3,J4,J5,JA,JB,JC,JD,JJ,JK,JN,#
2018-05-25 00:04:28,0.04,1.66,0.00,30.79,33.85,36.40,13.46,46.52,1013.20,1996.00,2720.13,2615.04,2996.05,599.84,578.65,51.72,0000 0000 0000 0000 000000
2018-05-25 00:09:30,0.00,1.66,0.00,30.83,33.86,36.42,13.50,46.67,1013.20,1996.00,2719.94,2614.99,2995.94,600.11,578.74,51.77,0000 0000 0000 0000 000000
2018-05-25 00:14:31,0.06,1.66,0.00,30.83,33.87,36.43,13.45,46.64,1013.18,1996.00,2719.18,2614.35,2995.22,599.86,578.64,51.83,0000 0000 0000 0000 000000
2018-05-25 00:19:32,0.04,1.66,0.00,30.85,33.90,36.45,13.41,46.59,1012.97,1996.00,2718.42,2613.91,2994.60,599.74,578.34,51.88,0000 0000 0000 0000 000000
2018-05-25 00:24:34,0.05,1.67,0.00,30.87,33.91,36.46,13.48,46.55,1012.80,1996.00,2717.44,2613.16,2994.01,600.10,578.51,51.93,0000 0000 0000 0000 000000
2018-05-25 00:29:35,0.01,1.67,0.00,30.92,33.92,36.48,13.48,46.58,1012.72,1996.00,2716.99,2612.99,2993.65,600.05,578.26,51.98,0000 0000 0000 0000 000000
2018-05-25 00:34:36,0.03,1.67,0.00,30.93,33.94,36.49,13.52,46.76,1012.71,1996.00,2716.51,2612.63,2993.04,600.24,578.46,52.03,0000 0000 0000 0000 000000
2018-05-25 00:39:37,0.04,1.67,0.00,30.97,33.96,36.51,13.44,46.71,1012.71,1995.98,2713.30,2610.51,2991.06,599.63,577.84,52.08,0000 0000 0000 0000 000000
2018-05-25 00:44:39,1.26,1.73,0.00,31.00,33.97,36.52,13.47,46.62,1012.71,1995.90,2692.07,2598.74,2977.77,600.16,578.28,52.13,0000 0000 0000 0000 000000
2018-05-25 00:49:40,0.02,1.74,0.00,31.02,34.00,36.55,13.42,46.44,1012.71,1995.66,2689.90,2597.22,2976.12,599.90,578.00,52.18,0000 0000 0000 0000 000000
2018-05-25 00:54:41,0.01,1.74,0.00,31.06,34.01,36.57,13.42,46.62,1012.71,1995.26,2689.13,2596.92,2975.67,599.74,577.65,52.23,0000 0000 0000 0000 000000
2018-05-25 00:59:42,0.04,1.74,0.00,31.07,34.03,36.58,13.41,46.58,1012.60,1995.14,2688.72,2596.24,2975.02,599.65,577.47,52.28,0000 0000 0000 0000 000000
2018-05-25 01:04:43,0.02,1.74,0.00,31.11,34.05,36.61,13.43,46.62,1012.45,1995.10,2688.02,2596.00,2974.62,599.90,577.69,52.33,0000 0000 0000 0000 000000
2018-05-25 01:09:44,0.04,1.74,0.00,31.12,34.07,36.63,13.43,46.45,1012.63,1995.01,2687.28,2595.41,2974.01,599.78,577.71,52.38,0000 0000 0000 0000 000000
2018-05-25 01:14:45,0.02,1.74,0.00,31.16,34.09,36.65,13.41,46.58,1012.67,1995.00,2686.86,2595.00,2973.45,600.03,577.80,52.43,0000 0000 0000 0000 000000
2018-05-25 01:19:47,0.04,1.75,0.00,31.18,34.11,36.67,13.39,46.48,1012.67,1995.00,2686.09,2594.57,2972.99,599.86,577.58,52.48,0000 0000 0000 0000 000000
2018-05-25 01:24:48,0.04,1.75,0.00,31.21,34.13,36.69,13.43,46.44,1012.66,1995.00,2685.65,2594.02,2972.28,599.87,577.64,52.53,0000 0000 0000 0000 000000
2018-05-25 01:29:50,0.02,1.75,0.00,31.24,34.15,36.71,13.42,46.43,1012.42,1995.00,2685.02,2593.74,2971.98,599.83,577.43,52.58,0000 0000 0000 0000 000000
2018-05-25 01:34:52,0.05,1.75,0.00,31.27,34.18,36.73,13.38,46.50,1012.29,1994.98,2684.57,2593.06,2971.30,599.94,577.22,52.63,0000 0000 0000 0000 000000
2018-05-25 01:39:53,0.01,1.75,0.00,31.29,34.20,36.75,13.43,46.53,1012.25,1994.92,2683.97,2592.74,2970.88,600.29,577.58,52.68,0000 0000 0000 0000 000000
2018-05-25 01:44:54,0.02,1.75,0.00,31.32,34.23,36.78,13.46,46.47,1012.23,1994.57,2683.20,2592.05,2970.12,600.00,577.22,52.73,0000 0000 0000 0000 000000
2018-05-25 01:49:56,0.00,1.75,0.00,31.35,34.25,36.80,13.47,46.49,1012.24,1994.29,2682.58,2591.75,2969.67,600.06,577.24,52.79,0000 0000 0000 0000 000000
2018-05-25 01:54:57,0.02,1.76,0.00,31.38,34.28,36.82,13.46,46.42,1012.24,1994.07,2682.01,2591.04,2969.01,600.26,577.34,52.84,0000 0000 0000 0000 000000
2018-05-25 01:59:58,0.04,1.76,0.00,31.41,34.31,36.84,13.42,46.48,1012.30,1994.01,2681.31,2590.79,2968.49,599.98,577.11,52.89,0000 0000 0000 0000 000000
2018-05-25 02:05:00,0.02,1.76,0.00,31.44,34.33,36.87,13.42,46.38,1012.25,1994.00,2680.96,2590.05,2968.00,600.04,577.15,52.94,0000 0000 0000 0000 000000
2018-05-25 02:10:01,0.04,1.76,0.00,31.48,34.36,36.89,13.35,46.41,1012.24,1994.00,2680.20,2589.84,2967.39,599.85,576.95,52.99,0000 0000 0000 0000 000000
2018-05-25 02:15:02,0.03,1.76,0.00,31.52,34.39,36.92,13.39,46.41,1012.22,1993.99,2679.75,2589.12,2966.96,600.13,576.81,53.04,0000 0000 0000 0000 000000
2018-05-25 02:20:03,0.02,1.76,0.00,31.55,34.42,36.95,13.48,46.50,1012.22,1993.93,2679.03,2588.87,2966.21,600.13,576.94,53.09,0000 0000 0000 0000 000000
2018-05-25 02:25:04,0.01,1.76,0.00,31.58,34.45,36.97,13.39,46.48,1012.22,1993.57,2678.29,2588.10,2965.73,600.03,576.80,53.14,0000 0000 0000 0000 000000
2018-05-25 02:30:06,0.01,1.77,0.00,31.62,34.48,36.99,13.40,46.30,1012.20,1993.34,2677.77,2587.89,2965.04,600.03,576.77,53.19,0000 0000 0000 0000 000000
2018-05-25 02:35:07,0.03,1.77,0.00,31.66,34.51,37.02,13.41,46.35,1012.21,1993.08,2677.04,2587.12,2964.57,600.21,576.85,53.24,0000 0000 0000 0000 000000
2018-05-25 02:40:08,0.02,1.77,0.00,31.70,34.54,37.05,13.37,46.37,1012.04,1993.01,2676.54,2586.89,2964.01,599.84,576.28,53.29,0000 0000 0000 0000 000000
2018-05-25 02:45:10,0.05,1.77,0.00,31.73,34.57,37.09,13.45,46.29,1011.83,1993.00,2675.99,2586.15,2963.41,599.96,576.20,53.34,0000 0000 0000 0000 000000
2018-05-25 02:50:11,0.03,1.77,0.00,31.77,34.59,37.10,13.36,46.38,1011.84,1992.99,2675.19,2585.84,2962.91,599.73,576.04,53.39,0000 0000 0000 0000 000000
2018-05-25 02:55:12,0.04,1.77,0.00,31.81,34.62,37.14,13.42,46.48,1011.82,1992.93,2674.67,2585.09,2962.17,600.25,576.34,53.44,0000 0000 0000 0000 000000
2018-05-25 03:00:13,0.02,1.77,0.00,31.86,34.65,37.17,13.34,46.41,1011.75,1992.71,2673.84,2584.72,2961.59,600.03,575.98,53.49,0000 0000 0000 0000 000000
2018-05-25 03:05:15,0.01,1.78,0.00,31.90,34.68,37.20,13.39,46.38,1011.75,1992.37,2673.08,2584.04,2961.01,599.96,575.88,53.54,0000 0000 0000 0000 000000
2018-05-25 03:10:16,0.01,1.78,0.00,31.93,34.71,37.23,13.37,46.33,1011.75,1992.16,2672.63,2583.87,2960.46,599.79,575.60,53.59,0000 0000 0000 0000 000000
2018-05-25 03:15:17,0.03,1.78,0.00,31.97,34.75,37.26,13.42,46.25,1011.74,1992.04,2672.02,2583.13,2960.00,600.13,575.88,53.64,0000 0000 0000 0000 000000
2018-05-25 03:20:19,0.04,1.78,0.00,32.01,34.78,37.29,13.37,46.34,1011.73,1992.00,2671.34,2582.82,2959.25,599.86,575.47,53.70,0000 0000 0000 0000 000000
2018-05-25 03:25:20,0.05,1.78,0.00,32.06,34.81,37.33,13.37,46.39,1011.73,1992.00,2670.56,2582.07,2958.70,600.09,575.68,53.75,0000 0000 0000 0000 000000
2018-05-25 03:30:22,0.03,1.78,0.00,32.10,34.84,37.36,13.36,46.29,1011.73,1991.97,2669.97,2581.63,2958.01,600.14,575.52,53.80,0000 0000 0000 0000 000000
2018-05-25 03:35:23,0.02,1.79,0.00,32.13,34.88,37.39,13.34,46.36,1011.73,1991.84,2669.25,2581.03,2957.54,599.55,574.99,53.85,0000 0000 0000 0000 000000
2018-05-25 03:40:24,0.01,1.79,0.00,32.16,34.91,37.42,13.39,46.45,1011.73,1991.62,2668.85,2580.79,2957.00,599.99,575.26,53.90,0000 0000 0000 0000 000000
2018-05-25 03:45:25,-0.00,1.79,0.00,32.20,34.94,37.46,13.33,46.38,1011.61,1991.20,2668.11,2580.07,2956.35,600.03,575.32,53.95,0000 0000 0000 0000 000000
2018-05-25 03:50:26,0.02,1.79,0.00,32.23,34.98,37.50,13.36,46.29,1011.70,1991.01,2667.53,2579.72,2955.92,599.74,574.94,54.00,0000 0000 0000 0000 000000
2018-05-25 03:55:27,0.04,1.79,0.00,32.30,35.01,37.53,13.36,46.42,1011.70,1991.00,2666.84,2579.03,2955.11,600.06,575.16,54.05,0000 0000 0000 0000 000000
2018-05-25 04:00:29,0.05,1.79,0.00,32.33,35.04,37.55,13.40,46.52,1011.66,1990.99,2666.05,2578.58,2954.55,600.07,575.02,54.10,0000 0000 0000 0000 000000
2018-05-25 04:05:30,0.02,1.79,0.00,32.37,35.08,37.59,13.32,46.38,1011.61,1990.95,2665.47,2578.02,2953.99,600.13,575.06,54.15,0000 0000 0000 0000 000000
2018-05-25 04:10:32,0.02,1.79,0.00,32.43,35.11,37.62,13.34,46.47,1011.70,1990.71,2664.90,2577.50,2953.24,600.19,574.98,54.20,0000 0000 0000 0000 000000
2018-05-25 04:15:33,-0.01,1.79,0.00,32.46,35.15,37.65,13.31,46.26,1011.46,1990.25,2664.11,2577.00,2952.84,600.08,574.69,54.25,0000 0000 0000 0000 000000
2018-05-25 04:20:35,0.04,1.80,0.00,32.46,35.18,37.69,13.38,46.38,1011.40,1990.01,2663.60,2576.43,2952.06,599.94,574.61,54.30,0000 0000 0000 0000 000000
2018-05-25 04:25:36,0.03,1.80,0.00,32.50,35.22,37.72,13.33,46.19,1011.48,1990.00,2662.95,2575.99,2951.39,599.93,574.50,54.35,0000 0000 0000 0000 000000
2018-05-25 04:30:37,0.05,1.80,0.00,32.55,35.25,37.75,13.44,46.29,1011.45,1989.99,2662.17,2575.32,2950.93,600.27,574.67,54.40,0000 0000 0000 0000 000000
2018-05-25 04:35:38,0.02,1.80,0.00,32.59,35.29,37.79,13.37,46.34,1011.32,1989.94,2661.62,2574.94,2950.12,599.85,574.19,54.45,0000 0000 0000 0000 000000
2018-05-25 04:40:40,0.03,1.80,0.00,32.64,35.33,37.82,13.36,46.42,1011.26,1989.77,2661.00,2574.23,2949.73,600.08,574.26,54.50,0000 0000 0000 0000 000000
2018-05-25 04:45:41,-0.02,1.80,0.00,32.61,35.37,37.85,13.30,46.48,1011.26,1989.27,2660.21,2573.87,2949.03,599.98,574.13,54.56,0000 0000 0000 0000 000000
2018-05-25 04:50:42,0.05,1.80,0.00,32.66,35.41,37.90,13.36,46.44,1011.25,1989.01,2659.46,2573.08,2948.21,599.74,573.99,54.61,0000 0000 0000 0000 000000
2018-05-25 04:55:43,0.03,1.81,0.00,32.70,35.46,37.92,13.37,46.47,1011.25,1989.00,2658.92,2572.63,2947.67,600.13,574.22,54.66,0000 0000 0000 0000 000000
2018-05-25 05:00:44,0.04,1.81,0.00,32.78,35.50,37.97,13.38,46.32,1011.25,1988.99,2658.11,2572.03,2947.02,600.23,574.18,54.71,0000 0000 0000 0000 000000
2018-05-25 05:05:45,0.04,1.81,0.00,32.84,35.54,37.99,13.32,46.46,1011.25,1988.81,2657.41,2571.39,2946.25,599.94,573.63,54.76,0000 0000 0000 0000 000000
2018-05-25 05:10:46,-0.02,1.81,0.00,32.86,35.59,38.04,13.33,46.44,1011.25,1988.39,2656.78,2570.96,2945.72,599.91,573.74,54.81,0000 0000 0000 0000 000000
2018-05-25 05:15:47,0.03,1.81,0.00,32.83,35.62,38.07,13.33,46.33,1011.25,1988.06,2656.03,2570.24,2945.03,599.97,573.83,54.86,0000 0000 0000 0000 000000
2018-05-25 05:20:49,0.03,1.81,0.00,32.85,35.66,38.10,13.28,46.41,1011.25,1988.01,2655.35,2569.92,2944.47,600.02,573.75,54.91,0000 0000 0000 0000 000000
2018-05-25 05:25:50,0.05,1.82,0.00,32.91,35.69,38.14,13.36,46.46,1011.24,1988.00,2654.64,2569.15,2943.96,600.13,573.70,54.96,0000 0000 0000 0000 000000
2018-05-25 05:30:51,0.03,1.82,0.00,32.95,35.73,38.17,13.35,46.32,1011.19,1987.95,2653.82,2568.77,2943.14,600.21,573.71,55.01,0000 0000 0000 0000 000000
2018-05-25 05:35:52,-0.01,1.82,0.00,32.99,35.76,38.20,13.36,46.39,1011.21,1987.56,2653.03,2568.03,2942.51,600.39,573.85,55.06,0000 0000 0000 0000 000000
2018-05-25 05:40:54,0.02,1.82,0.00,33.01,35.80,38.24,13.40,46.39,1011.22,1987.09,2652.28,2567.47,2941.91,600.08,573.59,55.11,0000 0000 0000 0000 000000
2018-05-25 05:45:55,0.03,1.82,0.00,33.02,35.84,38.27,13.35,46.28,1011.19,1987.02,2651.66,2566.96,2941.12,599.91,573.37,55.16,0000 0000 0000 0000 000000
2018-05-25 05:50:57,0.05,1.82,0.00,33.07,35.88,38.32,13.23,46.36,1011.12,1987.00,2650.96,2566.14,2940.41,599.83,573.10,55.21,0000 0000 0000 0000 000000
2018-05-25 05:55:58,0.02,1.82,0.00,33.13,35.92,38.35,13.36,46.41,1011.02,1986.98,2650.13,2565.87,2939.97,599.96,573.06,55.26,0000 0000 0000 0000 000000
2018-05-25 06:00:59,0.04,1.83,0.00,33.19,35.96,38.38,13.40,46.26,1010.82,1986.89,2649.55,2565.16,2939.23,600.31,573.22,55.31,0000 0000 0000 0000 000000
2018-05-25 06:06:00,-0.02,1.83,0.00,33.20,36.00,38.41,13.35,46.50,1010.79,1986.48,2648.91,2564.79,2938.67,600.25,573.04,55.36,0000 0000 0000 0000 000000
2018-05-25 06:11:01,0.02,1.83,0.00,33.21,36.04,38.45,13.40,46.51,1010.78,1986.06,2648.09,2564.06,2937.98,600.19,572.96,55.41,0000 0000 0000 0000 000000
2018-05-25 06:16:02,0.05,1.83,0.00,33.27,36.08,38.49,13.33,46.49,1010.77,1986.00,2647.37,2563.60,2937.21,599.99,572.74,55.46,0000 0000 0000 0000 000000
2018-05-25 06:21:03,0.03,1.83,0.00,33.33,36.12,38.53,13.29,46.43,1010.77,1986.00,2646.75,2563.01,2936.72,599.93,572.56,55.52,0000 0000 0000 0000 000000
2018-05-25 06:26:05,0.04,1.83,0.00,33.33,36.16,38.57,13.34,46.51,1010.77,1985.96,2645.99,2562.46,2936.02,600.16,572.74,55.57,0000 0000 0000 0000 000000
2018-05-25 06:31:06,0.01,1.83,0.00,33.31,36.19,38.61,13.29,46.41,1010.76,1985.72,2645.19,2561.94,2935.43,599.82,572.43,55.62,0000 0000 0000 0000 000000
2018-05-25 06:36:08,0.01,1.83,0.00,33.35,36.22,38.65,13.34,46.25,1010.76,1985.10,2644.30,2561.15,2934.63,600.30,572.88,55.67,0000 0000 0000 0000 000000
2018-05-25 06:41:09,0.02,1.84,0.00,33.38,36.25,38.68,13.29,46.38,1010.76,1985.01,2643.71,2560.87,2934.01,600.06,572.58,55.72,0000 0000 0000 0000 000000
2018-05-25 06:46:10,0.05,1.84,0.00,33.38,36.28,38.72,13.34,46.35,1010.76,1985.00,2642.96,2560.13,2933.40,599.84,572.40,55.77,0000 0000 0000 0000 000000
2018-05-25 06:51:12,0.03,1.84,0.00,33.36,36.30,38.75,13.34,46.34,1010.76,1985.00,2642.11,2559.81,2932.91,599.91,572.53,55.82,0000 0000 0000 0000 000000
2018-05-25 06:56:13,0.05,1.84,0.00,33.40,36.33,38.78,13.26,46.24,1010.77,1984.97,2641.28,2559.09,2932.13,599.55,572.11,55.87,0000 0000 0000 0000 000000
2018-05-25 07:01:14,0.02,1.84,0.00,33.43,36.35,38.82,13.34,46.34,1010.76,1984.94,2640.75,2558.99,2931.73,600.05,572.48,55.92,0000 0000 0000 0000 000000
2018-05-25 07:06:16,0.02,1.85,0.00,33.44,36.38,38.84,13.36,46.27,1010.76,1984.73,2640.03,2558.44,2931.03,599.97,572.36,55.97,0000 0000 0000 0000 000000
2018-05-25 07:11:17,0.00,1.85,0.00,33.42,36.40,38.86,13.32,46.34,1010.76,1984.32,2639.23,2557.99,2930.48,600.18,572.67,56.02,0000 0000 0000 0000 000000
2018-05-25 07:16:18,0.03,1.85,0.00,33.43,36.42,38.89,13.31,46.40,1010.76,1984.09,2638.47,2557.29,2929.93,599.92,572.36,56.07,0000 0000 0000 0000 000000
2018-05-25 07:21:20,0.02,1.85,0.00,33.48,36.45,38.92,13.34,46.39,1010.76,1984.02,2637.89,2556.99,2929.15,600.35,572.64,56.12,0000 0000 0000 0000 000000
2018-05-25 07:26:21,0.05,1.85,0.00,33.48,36.47,38.94,13.36,46.43,1010.76,1984.01,2637.06,2556.39,2928.87,599.84,572.18,56.17,0000 0000 0000 0000 000000
2018-05-25 07:31:22,0.03,1.85,0.00,33.47,36.49,38.96,13.34,46.40,1010.76,1984.00,2636.42,2556.00,2928.13,600.35,572.70,56.22,0000 0000 0000 0000 000000
2018-05-25 07:36:23,0.04,1.85,0.00,33.48,36.51,38.98,13.31,46.27,1010.76,1984.00,2635.76,2555.48,2927.75,600.18,572.65,56.27,0000 0000 0000 0000 000000
2018-05-25 07:41:24,0.02,1.86,0.00,33.52,36.53,39.00,13.34,46.39,1010.76,1984.00,2635.02,2555.02,2927.05,599.84,572.20,56.32,0000 0000 0000 0000 000000
2018-05-25 07:46:25,0.06,1.86,0.00,33.53,36.55,39.02,13.33,46.22,1010.77,1984.00,2634.26,2554.54,2926.46,599.88,572.26,56.37,0000 0000 0000 0000 000000
2018-05-25 07:51:26,0.02,1.86,0.00,33.52,36.57,39.05,13.28,46.39,1010.77,1983.98,2633.73,2554.01,2926.00,599.71,572.01,56.43,0000 0000 0000 0000 000000
2018-05-25 07:56:28,0.04,1.86,0.00,33.54,36.59,39.05,13.39,46.26,1010.76,1983.94,2633.03,2553.77,2925.44,600.28,572.50,56.48,0000 0000 0000 0000 000000
2018-05-25 08:01:29,0.03,1.86,0.00,33.57,36.60,39.07,13.36,46.42,1010.77,1983.88,2632.46,2553.09,2925.00,600.14,572.33,56.53,0000 0000 0000 0000 000000
2018-05-25 08:06:30,-0.02,1.86,0.00,33.57,36.63,39.10,13.28,46.12,1010.76,1983.57,2631.97,2552.94,2924.42,600.03,571.97,56.58,0000 0000 0000 0000 000000
2018-05-25 08:11:31,0.04,1.87,0.00,33.57,36.65,39.11,13.27,46.17,1010.76,1983.39,2631.24,2552.26,2924.00,599.76,571.87,56.63,0000 0000 0000 0000 000000
2018-05-25 08:16:32,0.00,1.87,0.00,33.60,36.67,39.14,13.28,46.23,1010.77,1983.24,2630.83,2552.00,2923.63,600.05,572.18,56.68,0000 0000 0000 0000 000000
2018-05-25 08:21:34,0.02,1.87,0.00,33.63,36.69,39.16,13.36,46.19,1010.76,1983.09,2630.10,2551.68,2923.04,600.13,572.24,56.73,0000 0000 0000 0000 000000
2018-05-25 08:26:35,0.04,1.87,0.00,33.63,36.71,39.19,13.35,46.13,1010.76,1983.01,2629.64,2551.06,2922.58,600.19,572.24,56.78,0000 0000 0000 0000 000000
2018-05-25 08:31:36,0.03,1.87,0.00,33.61,36.73,39.20,13.38,46.31,1010.76,1983.00,2628.98,2550.67,2922.00,600.14,572.10,56.83,0000 0000 0000 0000 000000
2018-05-25 08:36:38,0.05,1.87,0.00,33.61,36.74,39.21,13.29,46.32,1010.77,1983.00,2628.27,2550.05,2921.50,599.68,571.77,56.88,0000 0000 0000 0000 000000
2018-05-25 08:41:39,0.01,1.87,0.00,33.63,36.76,39.23,13.31,46.34,1010.77,1983.00,2627.72,2549.93,2921.00,599.93,572.01,56.93,0000 0000 0000 0000 000000
2018-05-25 08:46:41,0.05,1.88,0.00,33.63,36.78,39.26,13.26,46.17,1010.80,1983.00,2627.02,2549.22,2920.50,599.84,571.95,56.98,0000 0000 0000 0000 000000
2018-05-25 08:51:42,0.02,1.88,0.00,33.60,36.79,39.27,13.34,46.23,1010.78,1983.00,2626.34,2548.99,2920.00,600.17,572.26,57.03,0000 0000 0000 0000 000000
2018-05-25 08:56:43,0.04,1.88,0.00,33.60,36.80,39.28,13.39,46.37,1010.77,1982.97,2625.95,2548.51,2919.59,600.08,572.20,57.08,0000 0000 0000 0000 000000
2018-05-25 09:01:45,0.01,1.88,0.00,33.63,36.82,39.31,13.34,46.24,1010.76,1982.74,2625.13,2548.01,2918.99,599.89,572.02,57.13,0000 0000 0000 0000 000000
2018-05-25 09:06:46,0.02,1.88,0.00,33.62,36.83,39.32,13.39,46.41,1010.86,1982.51,2624.47,2547.66,2918.28,600.25,572.35,57.18,0000 0000 0000 0000 000000
2018-05-25 09:11:47,-0.00,1.88,0.00,33.60,36.85,39.34,13.35,46.06,1010.82,1982.28,2623.96,2547.04,2917.98,599.68,571.85,57.23,0000 0000 0000 0000 000000
2018-05-25 09:16:49,0.04,1.88,0.00,33.60,36.85,39.34,13.28,46.19,1011.05,1982.23,2623.18,2546.81,2917.42,599.81,572.06,57.28,0000 0000 0000 0000 000000
2018-05-25 09:21:49,0.10,1.89,0.00,33.62,36.86,39.36,13.25,46.02,1010.97,1982.20,2621.74,2545.66,2916.36,599.71,571.80,57.34,0000 0000 0000 0000 000000
2018-05-25 09:26:51,0.11,1.89,0.00,33.61,36.88,39.37,13.38,46.33,1011.15,1982.09,2619.52,2544.45,2914.78,600.35,572.68,57.39,0000 0000 0000 0000 000000
2018-05-25 09:31:52,0.08,1.90,0.00,33.58,36.88,39.37,13.26,46.27,1011.21,1982.03,2617.77,2543.28,2913.60,599.72,572.15,57.44,0000 0000 0000 0000 000000
2018-05-25 09:36:54,0.07,1.90,0.00,33.58,36.88,39.39,13.32,46.18,1011.24,1982.03,2616.51,2542.50,2912.67,600.19,572.63,57.49,0000 0000 0000 0000 000000
2018-05-25 09:41:55,0.06,1.91,0.00,33.60,36.88,39.39,13.36,46.12,1011.23,1982.00,2615.12,2541.66,2911.68,600.14,572.48,57.54,0000 0000 0000 0000 000000
2018-05-25 09:46:57,0.10,1.91,0.00,33.61,36.90,39.40,13.29,46.11,1011.24,1982.00,2613.29,2540.55,2910.35,599.88,572.27,57.59,0000 0000 0000 0000 000000
2018-05-25 09:51:58,0.14,1.92,0.00,33.60,36.90,39.39,13.37,46.11,1011.24,1982.00,2610.90,2538.99,2908.56,600.09,572.44,57.64,0000 0000 0000 0000 000000
2018-05-25 09:56:59,0.15,1.93,0.00,33.59,36.90,39.40,13.32,46.21,1011.24,1982.00,2608.29,2537.34,2906.70,599.99,572.27,57.69,0000 0000 0000 0000 000000
2018-05-25 10:02:01,0.15,1.93,0.00,33.60,36.91,39.41,13.35,46.11,1011.25,1982.00,2605.53,2535.60,2904.77,600.07,572.45,57.74,0000 0000 0000 0000 000000
2018-05-25 10:07:02,0.14,1.94,0.00,33.59,36.92,39.42,13.39,46.13,1011.26,1982.00,2603.20,2533.96,2902.92,600.12,572.48,57.79,0000 0000 0000 0000 000000
2018-05-25 10:12:03,0.08,1.95,0.00,33.57,36.93,39.41,13.29,46.12,1011.26,1982.00,2601.38,2532.94,2901.67,600.01,572.49,57.84,0000 0000 0000 0000 000000
2018-05-25 10:17:04,0.06,1.95,0.00,33.58,36.93,39.42,13.34,46.02,1011.25,1982.00,2600.21,2532.10,2900.79,600.00,572.42,57.89,0000 0000 0000 0000 000000
2018-05-25 10:22:06,0.09,1.95,0.00,33.59,36.93,39.42,13.33,46.15,1011.25,1981.99,2598.76,2531.19,2899.76,600.04,572.41,57.94,0000 0000 0000 0000 000000
2018-05-25 10:27:07,0.09,1.96,0.00,33.58,36.93,39.43,13.37,46.37,1011.28,1981.99,2597.06,2530.12,2898.56,599.70,572.22,57.99,0000 0000 0000 0000 000000
2018-05-25 10:32:08,0.08,1.96,0.00,33.58,36.93,39.41,13.38,46.29,1011.26,1981.98,2595.63,2529.15,2897.48,600.23,572.66,58.04,0000 0000 0000 0000 000000
2018-05-25 10:37:10,0.08,1.97,0.00,33.63,36.93,39.37,13.33,46.40,1011.34,1981.99,2594.25,2528.17,2896.32,600.14,572.54,58.09,0000 0000 0000 0000 000000
2018-05-25 10:42:11,0.13,1.97,0.00,33.70,36.95,39.36,13.36,46.40,1011.51,1981.98,2592.33,2526.84,2894.82,599.93,572.24,58.14,0000 0000 0000 0000 000000
2018-05-25 10:47:12,0.20,1.98,0.00,33.77,36.95,39.35,13.36,46.37,1011.63,1981.98,2589.08,2524.72,2892.48,600.58,572.90,58.19,0000 0000 0000 0000 000000
2018-05-25 10:52:13,0.20,1.99,0.00,33.84,36.96,39.38,13.33,46.36,1011.69,1981.98,2585.63,2522.48,2890.03,600.17,572.37,58.25,0000 0000 0000 0000 000000
2018-05-25 10:57:15,0.18,2.00,0.00,33.90,36.98,39.42,13.33,46.33,1011.67,1981.95,2582.31,2520.40,2887.67,600.10,572.13,58.30,0000 0000 0000 0000 000000
2018-05-25 11:02:16,0.17,2.01,0.00,33.98,37.00,39.48,13.28,46.19,1011.70,1981.87,2579.27,2518.39,2885.41,600.15,571.99,58.35,0000 0000 0000 0000 000000
2018-05-25 11:07:17,0.15,2.02,0.00,34.01,37.02,39.53,13.31,46.24,1011.60,1981.61,2576.10,2516.30,2883.07,600.37,572.24,58.40,0000 0000 0000 0000 000000
2018-05-25 11:12:19,0.10,2.03,0.00,34.05,37.05,39.58,13.30,46.23,1011.69,1981.41,2573.77,2514.71,2881.34,599.90,571.71,58.45,0000 0000 0000 0000 000000
2018-05-25 11:17:20,0.10,2.03,0.00,34.09,37.08,39.63,13.30,46.34,1011.72,1981.23,2571.88,2513.40,2879.83,600.09,572.02,58.50,0000 0000 0000 0000 000000
2018-05-25 11:22:21,0.08,2.04,0.00,34.12,37.11,39.66,13.36,46.28,1011.73,1981.08,2570.26,2512.25,2878.57,600.41,571.98,58.55,0000 0000 0000 0000 000000
2018-05-25 11:27:23,0.09,2.04,0.00,34.15,37.13,39.68,13.29,46.30,1011.73,1981.00,2568.62,2511.02,2877.28,600.17,571.81,58.60,0000 0000 0000 0000 000000
2018-05-25 11:32:24,0.11,2.05,0.00,34.14,37.16,39.70,13.33,46.31,1011.74,1981.00,2566.93,2509.82,2875.95,600.03,571.66,58.65,0000 0000 0000 0000 000000
2018-05-25 11:37:25,0.13,2.05,0.00,34.15,37.19,39.71,13.31,46.21,1011.74,1981.00,2564.73,2508.39,2874.30,599.90,571.59,58.70,0000 0000 0000 0000 000000
2018-05-25 11:42:27,0.14,2.06,0.00,34.15,37.21,39.73,13.29,46.35,1011.74,1980.97,2562.39,2506.77,2872.53,600.16,571.82,58.75,0000 0000 0000 0000 000000
2018-05-25 11:47:28,0.11,2.07,0.00,34.14,37.24,39.75,13.39,46.34,1011.73,1980.88,2560.27,2505.40,2870.93,600.56,572.21,58.80,0000 0000 0000 0000 000000
2018-05-25 11:52:29,0.10,2.07,0.00,34.11,37.26,39.77,13.32,46.31,1011.74,1980.59,2558.31,2503.87,2869.28,600.24,571.86,58.85,0000 0000 0000 0000 000000
2018-05-25 11:57:31,0.09,2.08,0.00,34.09,37.28,39.79,13.35,46.35,1011.75,1980.29,2556.30,2502.57,2867.70,600.17,571.99,58.90,0000 0000 0000 0000 000000
2018-05-25 12:02:32,0.08,2.08,0.00,34.05,37.30,39.80,13.32,46.33,1011.80,1980.08,2554.40,2501.28,2866.26,599.59,571.49,58.95,0000 0000 0000 0000 000000
2018-05-25 12:07:33,0.11,2.09,0.00,34.02,37.31,39.81,13.37,46.25,1012.00,1980.01,2552.51,2499.97,2864.77,600.51,572.52,59.00,0000 0000 0000 0000 000000
2018-05-25 12:12:35,0.12,2.09,0.00,34.00,37.33,39.82,13.29,46.16,1012.18,1980.00,2550.60,2498.74,2863.41,599.73,571.94,59.05,0000 0000 0000 0000 000000
2018-05-25 12:17:36,0.11,2.10,0.00,33.98,37.33,39.85,13.29,46.22,1012.22,1980.00,2548.66,2497.53,2861.97,600.03,572.30,59.11,0000 0000 0000 0000 000000
2018-05-25 12:22:37,0.16,2.11,0.00,33.94,37.33,39.85,13.39,46.24,1012.22,1980.00,2546.22,2495.96,2860.18,599.92,572.24,59.16,0000 0000 0000 0000 000000
2018-05-25 12:27:39,0.15,2.11,0.00,33.92,37.35,39.86,13.36,46.28,1012.22,1980.00,2543.49,2494.29,2858.14,600.38,572.71,59.21,0000 0000 0000 0000 000000
2018-05-25 12:32:40,0.17,2.12,0.00,33.89,37.35,39.88,13.37,46.46,1012.23,1979.99,2540.52,2492.46,2856.05,600.39,572.81,59.26,0000 0000 0000 0000 000000
2018-05-25 12:37:42,0.32,2.14,0.00,33.85,37.35,39.88,13.41,46.39,1012.23,1979.94,2535.70,2489.47,2852.71,600.11,572.58,59.31,0000 0000 0000 0000 000000
2018-05-25 12:42:43,0.27,2.15,0.00,33.81,37.34,39.88,13.35,46.32,1012.24,1979.89,2530.53,2486.32,2849.20,599.90,572.44,59.36,0000 0000 0000 0000 000000
2018-05-25 12:47:44,0.30,2.17,0.00,33.80,37.33,39.89,13.38,46.28,1012.28,1979.92,2525.46,2483.31,2845.78,600.25,572.95,59.41,0000 0000 0000 0000 000000
2018-05-25 12:52:46,0.43,2.18,0.00,33.77,37.33,39.89,13.33,46.18,1012.29,1979.88,2518.58,2479.07,2841.12,599.69,572.19,59.46,0000 0000 0000 0000 000000
2018-05-25 12:57:47,0.36,2.21,0.00,33.73,37.33,39.90,13.39,46.20,1012.37,1979.86,2511.95,2474.88,2836.46,599.82,572.61,59.51,0000 0000 0000 0000 000000